Estación Meteorológica de la Universidad de Murcia
Estación Meteorológica de la Universidad de Murcia
Universidad de Murcia
 

Temperatura y Humedad del sueloTemperatura y Humedad del suelo

 

Temperatura del suelo máxima: 23,9 ºC a las 14:32:00 del día 12/11/2018
Temperatura del suelo mínima: 10,6 ºC a las 07:50:00 del día 12/11/2018
Humedad del suelo máxima: 0 % a las 00:00:00 del día 12/11/2018
Humedad del suelo mínima: 999,9 % a las 00:00:00 del día 12/11/2018

||Temperatura del suelo máxima últimos meses|| ---- ||Temperatura del suelo mínima últimos meses||

----||Humedad del suelo máxima últimos meses|| ---- ||Humedad del suelo mínima últimos meses||


Temperatura del suelo máxima

  • 1 - 23,9 ºC del día 12/11/2018
  • 2 - 25,8 ºC del día 11/11/2018
  • 3 - 24,6 ºC del día 10/11/2018
  • 4 - 19,9 ºC del día 09/11/2018
  • 5 - 23,5 ºC del día 08/11/2018
  • 6 - 23 ºC del día 07/11/2018
  • 7 - 22,2 ºC del día 06/11/2018
  • 8 - 15,4 ºC del día 05/11/2018
  • 9 - 25 ºC del día 04/11/2018
  • 10 - 22,1 ºC del día 03/11/2018
  • 11 - 24,3 ºC del día 02/11/2018
  • 12 - 19,9 ºC del día 01/11/2018
  • 13 - 19,8 ºC del día 31/10/2018
  • 14 - 14,5 ºC del día 30/10/2018
  • 15 - 18,7 ºC del día 29/10/2018
  • 16 - 17,9 ºC del día 28/10/2018
  • 17 - 24,1 ºC del día 27/10/2018
  • 18 - 27,8 ºC del día 26/10/2018
  • 19 - 30,1 ºC del día 25/10/2018
  • 20 - 28,4 ºC del día 24/10/2018
  • 21 - 26,6 ºC del día 23/10/2018
  • 22 - 29,5 ºC del día 22/10/2018
  • 23 - 28 ºC del día 21/10/2018
  • 24 - 23,7 ºC del día 20/10/2018
  • 25 - 26,2 ºC del día 19/10/2018
  • 26 - 27,9 ºC del día 18/10/2018
  • 27 - 28,6 ºC del día 17/10/2018
  • 28 - 26,4 ºC del día 16/10/2018
  • 29 - 26,7 ºC del día 15/10/2018
  • 30 - 27,4 ºC del día 14/10/2018
  • 31 - 30,2 ºC del día 13/10/2018
  • 32 - 31,6 ºC del día 12/10/2018
  • 33 - 29,5 ºC del día 11/10/2018
  • 34 - 28,9 ºC del día 10/10/2018
  • 35 - 24,9 ºC del día 09/10/2018
  • 36 - 28,1 ºC del día 08/10/2018
  • 37 - 32,2 ºC del día 07/10/2018
  • 38 - 31,9 ºC del día 06/10/2018
  • 39 - 30,7 ºC del día 05/10/2018
  • 40 - 30,9 ºC del día 04/10/2018
  • 41 - 30,8 ºC del día 03/10/2018
  • 42 - 29,6 ºC del día 02/10/2018
  • 43 - 31,1 ºC del día 01/10/2018
  • 44 - 31,6 ºC del día 30/09/2018
  • 45 - 31,7 ºC del día 29/09/2018
  • 46 - 31,4 ºC del día 28/09/2018
  • 47 - 30,8 ºC del día 27/09/2018
  • 48 - 32,9 ºC del día 26/09/2018
  • 49 - 32,9 ºC del día 25/09/2018
  • 50 - 33,3 ºC del día 21/09/2018
  • 51 - 33,3 ºC del día 20/09/2018
  • 52 - 34 ºC del día 19/09/2018
  • 53 - 33,8 ºC del día 18/09/2018
  • 54 - 31,8 ºC del día 17/09/2018
  • 55 - 32,7 ºC del día 16/09/2018
  • 56 - 27,1 ºC del día 15/09/2018
  • 57 - 33,4 ºC del día 14/09/2018

||Volver al inicio de la página||


Temperatura del suelo mínima

  • 1 - 10,6 ºC del día 12/11/2018
  • 2 - 10,1 ºC del día 11/11/2018
  • 3 - 9,4 ºC del día 10/11/2018
  • 4 - 8,7 ºC del día 09/11/2018
  • 5 - 8,6 ºC del día 08/11/2018
  • 6 - 5,7 ºC del día 07/11/2018
  • 7 - 6 ºC del día 06/11/2018
  • 8 - 8,3 ºC del día 05/11/2018
  • 9 - 5,5 ºC del día 04/11/2018
  • 10 - 7,7 ºC del día 03/11/2018
  • 11 - 6,8 ºC del día 02/11/2018
  • 12 - 6,3 ºC del día 01/11/2018
  • 13 - 7,6 ºC del día 31/10/2018
  • 14 - 8,5 ºC del día 30/10/2018
  • 15 - 7,6 ºC del día 29/10/2018
  • 16 - 10,2 ºC del día 28/10/2018
  • 17 - 12,8 ºC del día 27/10/2018
  • 18 - 11,6 ºC del día 26/10/2018
  • 19 - 10,9 ºC del día 25/10/2018
  • 20 - 13,6 ºC del día 24/10/2018
  • 21 - 16,2 ºC del día 23/10/2018
  • 22 - 16,2 ºC del día 22/10/2018
  • 23 - 18,5 ºC del día 21/10/2018
  • 24 - 14,6 ºC del día 20/10/2018
  • 25 - 14,7 ºC del día 19/10/2018
  • 26 - 13,3 ºC del día 18/10/2018
  • 27 - 14,7 ºC del día 17/10/2018
  • 28 - 14,2 ºC del día 16/10/2018
  • 29 - 11,8 ºC del día 15/10/2018
  • 30 - 14,7 ºC del día 14/10/2018
  • 31 - 18,2 ºC del día 13/10/2018
  • 32 - 17,5 ºC del día 12/10/2018
  • 33 - 16,8 ºC del día 11/10/2018
  • 34 - 15,6 ºC del día 10/10/2018
  • 35 - 14,5 ºC del día 09/10/2018
  • 36 - 16,8 ºC del día 08/10/2018
  • 37 - 15,2 ºC del día 07/10/2018
  • 38 - 15,5 ºC del día 06/10/2018
  • 39 - 15,7 ºC del día 05/10/2018
  • 40 - 14,4 ºC del día 04/10/2018
  • 41 - 15,3 ºC del día 03/10/2018
  • 42 - 17,3 ºC del día 02/10/2018
  • 43 - 16,7 ºC del día 01/10/2018
  • 44 - 15,8 ºC del día 30/09/2018
  • 45 - 16 ºC del día 29/09/2018
  • 46 - 17,3 ºC del día 28/09/2018
  • 47 - 19,4 ºC del día 27/09/2018
  • 48 - 21,6 ºC del día 26/09/2018
  • 49 - 21,5 ºC del día 25/09/2018
  • 50 - 20,9 ºC del día 21/09/2018
  • 51 - 20,9 ºC del día 20/09/2018
  • 52 - 19,8 ºC del día 19/09/2018
  • 53 - 21,3 ºC del día 18/09/2018
  • 54 - 21,6 ºC del día 17/09/2018
  • 55 - 19 ºC del día 16/09/2018
  • 56 - 20 ºC del día 15/09/2018
  • 57 - 21 ºC del día 14/09/2018

||Volver al inicio de la página||


Humedad del suelo máxima

  • 1 - 0 % del día 12/11/2018
  • 2 - 0 % del día 11/11/2018
  • 3 - 0 % del día 10/11/2018
  • 4 - 0 % del día 09/11/2018
  • 5 - 0 % del día 08/11/2018
  • 6 - 0 % del día 07/11/2018
  • 7 - 0 % del día 06/11/2018
  • 8 - 0 % del día 05/11/2018
  • 9 - 0 % del día 04/11/2018
  • 10 - 0 % del día 03/11/2018
  • 11 - 0 % del día 02/11/2018
  • 12 - 35 % del día 01/11/2018
  • 13 - 35,8 % del día 31/10/2018
  • 14 - 36,1 % del día 30/10/2018
  • 15 - 36,3 % del día 29/10/2018
  • 16 - 37,5 % del día 28/10/2018
  • 17 - 39,1 % del día 27/10/2018
  • 18 - 39,2 % del día 26/10/2018
  • 19 - 40,1 % del día 25/10/2018
  • 20 - 66,7 % del día 24/10/2018
  • 21 - 50 % del día 23/10/2018
  • 22 - 58 % del día 22/10/2018
  • 23 - 44,1 % del día 21/10/2018
  • 24 - 44,4 % del día 20/10/2018
  • 25 - 50,6 % del día 19/10/2018
  • 26 - 66,6 % del día 18/10/2018
  • 27 - 32,3 % del día 17/10/2018
  • 28 - 32,3 % del día 16/10/2018
  • 29 - 32,7 % del día 15/10/2018
  • 30 - 32,5 % del día 14/10/2018
  • 31 - 32,8 % del día 13/10/2018
  • 32 - 32,8 % del día 12/10/2018
  • 33 - 32,4 % del día 11/10/2018
  • 34 - 31,5 % del día 10/10/2018
  • 35 - 29,5 % del día 09/10/2018
  • 36 - 29,8 % del día 08/10/2018
  • 37 - 29,6 % del día 07/10/2018
  • 38 - 29,9 % del día 06/10/2018
  • 39 - 30,4 % del día 05/10/2018
  • 40 - 30,1 % del día 04/10/2018
  • 41 - 31,2 % del día 03/10/2018
  • 42 - 31,9 % del día 02/10/2018
  • 43 - 31,5 % del día 01/10/2018
  • 44 - 31,9 % del día 30/09/2018
  • 45 - 32,4 % del día 29/09/2018
  • 46 - 33,3 % del día 28/09/2018
  • 47 - 33,2 % del día 27/09/2018
  • 48 - 33,7 % del día 26/09/2018
  • 49 - 32,7 % del día 25/09/2018
  • 50 - 36,9 % del día 21/09/2018
  • 51 - 36,9 % del día 20/09/2018
  • 52 - 37,8 % del día 19/09/2018
  • 53 - 43,6 % del día 18/09/2018
  • 54 - 39,8 % del día 17/09/2018
  • 55 - 42,1 % del día 16/09/2018
  • 56 - 46,6 % del día 15/09/2018
  • 57 - 24,5 % del día 14/09/2018

||Volver al inicio de la página||


Humedad del suelo mínima

  • 1 - 999,9 % del día 12/11/2018
  • 2 - 999,9 % del día 11/11/2018
  • 3 - 999,9 % del día 10/11/2018
  • 4 - 999,9 % del día 09/11/2018
  • 5 - 999,9 % del día 08/11/2018
  • 6 - 999,9 % del día 07/11/2018
  • 7 - 999,9 % del día 06/11/2018
  • 8 - 999,9 % del día 05/11/2018
  • 9 - 999,9 % del día 04/11/2018
  • 10 - 999,9 % del día 03/11/2018
  • 11 - 999,9 % del día 02/11/2018
  • 12 - 35 % del día 01/11/2018
  • 13 - 32,6 % del día 31/10/2018
  • 14 - 32,4 % del día 30/10/2018
  • 15 - 32,8 % del día 29/10/2018
  • 16 - 33,4 % del día 28/10/2018
  • 17 - 33,6 % del día 27/10/2018
  • 18 - 34,3 % del día 26/10/2018
  • 19 - 35,6 % del día 25/10/2018
  • 20 - 36,5 % del día 24/10/2018
  • 21 - 37,6 % del día 23/10/2018
  • 22 - 38,5 % del día 22/10/2018
  • 23 - 39,6 % del día 21/10/2018
  • 24 - 40 % del día 20/10/2018
  • 25 - 40,2 % del día 19/10/2018
  • 26 - 27,9 % del día 18/10/2018
  • 27 - 27,9 % del día 17/10/2018
  • 28 - 28,2 % del día 16/10/2018
  • 29 - 28,2 % del día 15/10/2018
  • 30 - 28,3 % del día 14/10/2018
  • 31 - 28,5 % del día 13/10/2018
  • 32 - 28,7 % del día 12/10/2018
  • 33 - 28,2 % del día 11/10/2018
  • 34 - 26,2 % del día 10/10/2018
  • 35 - 25,3 % del día 09/10/2018
  • 36 - 25,7 % del día 08/10/2018
  • 37 - 26 % del día 07/10/2018
  • 38 - 26 % del día 06/10/2018
  • 39 - 26,2 % del día 05/10/2018
  • 40 - 25,8 % del día 04/10/2018
  • 41 - 26,9 % del día 03/10/2018
  • 42 - 26,7 % del día 02/10/2018
  • 43 - 27,5 % del día 01/10/2018
  • 44 - 27,8 % del día 30/09/2018
  • 45 - 27,9 % del día 29/09/2018
  • 46 - 28,8 % del día 28/09/2018
  • 47 - 28,4 % del día 27/09/2018
  • 48 - 28,7 % del día 26/09/2018
  • 49 - 29,6 % del día 25/09/2018
  • 50 - 33,7 % del día 21/09/2018
  • 51 - 33,7 % del día 20/09/2018
  • 52 - 34,6 % del día 19/09/2018
  • 53 - 34,4 % del día 18/09/2018
  • 54 - 35,4 % del día 17/09/2018
  • 55 - 37,4 % del día 16/09/2018
  • 56 - 22,4 % del día 15/09/2018
  • 57 - 22,4 % del día 14/09/2018

 

|| Temperatura Ambiente|| Humedad relativa|| Velocidad y dirección del viento|| Precipitación|| Radiación Solar Global y PAR|| Presión atmosférica|| Más información|| Volver a la página principal|| Volver al inicio de la página||


Estación Meteorológica de la Universidad de Murcia
http://estacion.um.es/
Informacion actualizada a: 13/11/2018 a las 01:18:00